EHI
0 0 0 0 0 0 0 0 0 0 0 0 0 0 0 0 0 0 0 1 5 11 17 23 25 24 23 20 17 16 15 16 18 18 16 13 9 5 4 4 3 3 3 3 1 0 0 0 0
0 0 0 0 0 0 0 0 0 0 0 0 0 0 0 0 0 0 0 2 7 14 19 22 24 25 23 20 18 18 16 16 17 17 16 13 9 7 6 4 3 3 3 3 2 1 0 0 0
0 0 0 0 0 0 0 0 0 0 0 0 0 0 0 0 0 0 1 4 9 15 18 21 23 25 24 21 19 19 17 15 14 14 15 14 11 9 8 6 4 4 3 3 2 1 0 0 0
0 0 0 0 0 0 0 0 0 0 0 0 0 0 0 0 0 1 3 6 10 15 18 21 25 26 25 24 21 20 18 16 14 14 14 14 13 12 10 8 7 6 4 2 1 0 0 1 1
0 0 0 0 0 0 0 0 0 0 0 0 0 0 1 1 1 3 5 8 13 18 20 22 25 27 26 25 25 24 22 20 17 16 15 15 15 14 12 10 10 8 4 1 0 0 0 0 0
0 0 0 0 0 0 0 0 0 0 0 0 1 1 2 2 3 5 7 10 14 18 22 24 25 26 26 26 27 27 26 24 22 20 18 16 16 16 14 11 11 8 3 1 1 1 1 0 0
0 0 0 0 0 0 0 0 0 0 0 1 2 3 3 2 4 7 10 13 15 16 19 23 25 25 25 24 24 24 24 23 22 21 18 15 14 15 14 11 9 6 2 1 2 3 1 0 0
0 0 0 0 0 0 0 0 0 0 0 1 2 3 4 4 6 9 12 15 16 14 15 18 21 23 22 18 16 16 16 16 17 16 15 12 11 12 11 8 5 4 2 1 3 3 1 0 0
0 0 0 0 0 0 0 0 0 0 0 0 1 3 4 5 8 9 11 13 13 13 12 14 16 18 17 14 10 10 9 9 10 11 11 10 10 10 8 4 3 2 2 1 2 2 1 0 0
0 0 0 0 0 0 0 0 0 0 0 0 1 3 5 7 8 7 6 7 10 12 12 11 12 12 13 12 10 9 9 7 6 7 9 9 9 8 6 2 1 2 2 1 1 1 0 0 0
0 0 0 0 0 0 0 0 0 0 0 0 1 5 7 8 7 5 3 3 6 10 11 9 8 8 9 11 11 10 10 8 6 5 7 7 7 7 5 2 0 1 1 0 0 0 0 0 0
0 0 0 0 0 0 0 0 0 0 0 0 2 5 8 8 6 5 4 3 4 6 7 6 5 5 6 9 10 10 9 8 6 5 5 5 6 6 4 1 0 0 0 0 0 0 0 1 1
0 0 0 0 0 0 0 0 0 0 0 0 2 4 6 8 7 5 5 4 3 3 4 5 5 5 5 7 8 8 7 6 6 6 5 4 4 5 3 1 0 0 0 0 0 0 0 0 0
0 0 0 0 0 0 0 0 0 0 0 0 1 3 4 6 6 5 4 3 2 1 2 3 6 6 6 6 7 7 6 5 5 6 6 4 4 3 1 0 0 0 0 0 0 0 0 0 0
0 0 0 0 0 0 0 0 1 0 0 0 1 2 3 4 4 4 4 2 1 0 0 2 5 7 7 7 6 6 5 4 4 5 6 5 4 2 1 0 0 0 0 0 0 0 0 0 0
0 0 0 0 0 0 0 0 0 0 0 0 1 2 3 2 3 5 5 3 1 0 0 1 4 7 8 7 6 5 4 3 3 4 5 5 3 1 0 0 0 0 0 0 0 0 0 0 0
0 0 0 0 0 0 0 0 0 0 0 0 0 1 2 2 3 5 6 5 3 1 1 1 3 5 7 8 7 5 3 3 3 3 4 4 3 1 1 0 0 0 0 0 0 0 0 0 0
0 0 0 0 0 0 0 0 0 0 0 0 0 0 1 2 4 6 7 6 4 2 1 1 1 3 5 8 8 5 3 3 3 3 3 3 3 3 2 1 0 0 0 0 0 0 0 0 0
0 0 0 0 0 0 0 0 0 0 0 0 0 0 0 2 5 7 8 8 6 4 2 1 0 1 4 7 7 4 3 3 3 3 3 2 2 3 3 2 1 0 0 0 0 0 0 0 0
0 0 0 0 0 0 0 0 0 0 0 0 0 0 0 1 4 7 9 9 8 5 3 2 1 1 2 5 5 3 2 2 2 2 2 1 1 2 3 2 1 0 0 0 0 0 0 0 0
0 0 0 0 0 0 0 0 0 0 0 0 0 0 0 0 2 5 8 8 7 4 3 3 2 1 2 3 3 3 2 1 1 1 1 0 0 1 1 1 1 0 0 0 0 0 0 0 0
0 0 0 0 0 0 0 0 0 0 0 0 0 0 0 0 1 3 5 5 4 3 3 3 3 2 2 3 3 2 1 0 0 0 0 0 0 0 0 0 0 0 0 0 0 0 0 0 0
0 0 0 0 0 0 0 0 0 0 0 0 0 0 0 0 0 1 2 3 2 2 3 3 3 2 3 3 3 2 0 0 0 0 0 0 0 0 0 0 0 0 0 0 0 0 0 0 0
0 0 0 0 0 0 0 0 0 0 0 0 0 0 0 0 0 0 1 1 1 1 1 2 2 1 2 3 3 2 1 0 0 0 0 0 0 0 0 0 0 0 0 0 0 0 0 0 0
0 0 0 0 0 0 0 0 0 0 0 0 0 0 0 0 0 0 0 0 0 0 1 2 1 0 1 2 2 2 1 0 0 0 0 0 0 0 0 0 0 0 0 0 0 0 0 0 0
0 0 0 0 0 0 0 0 0 0 0 0 0 0 0 0 0 0 0 0 0 0 1 2 1 0 0 1 1 1 1 0 0 0 0 0 0 0 0 0 0 0 0 0 0 0 0 0 0
0 0 0 0 0 0 0 0 0 0 0 0 0 0 0 0 0 0 0 0 0 0 2 2 1 0 0 0 0 0 0 0 0 0 0 0 0 0 0 0 0 0 0 0 0 0 0 0 0
0 0 0 0 0 0 0 0 0 0 0 0 0 0 0 0 0 0 0 0 0 0 1 2 1 0 0 0 0 0 0 0 0 0 0 0 0 0 0 0 0 0 0 0 0 0 0 0 0
0 0 0 0 0 0 0 0 0 0 0 0 0 0 0 0 0 0 0 0 0 0 1 2 1 0 0 0 0 0 0 0 0 0 0 0 0 0 0 0 0 0 0 0 0 0 0 0 0
0 0 0 0 0 0 0 0 0 0 0 0 0 0 0 0 0 0 0 0 0 0 0 1 1 0 0 0 0 0 0 0 0 0 0 0 0 0 0 0 0 0 0 0 0 0 0 0 0
Wind_Speed
8 4 2 4 6 4 4 4 2 1 2 1 1 2 4 4 4 2 2 2 3 4 4 6 8 9 10 11 11 11 11 11 12 12 13 13 13 13 13 13 13 13 14 14 15 15 15 15 16
3 2 4 5 5 2 5 4 3 4 2 1 2 2 3 1 1 2 2 2 2 4 4 5 7 8 9 10 11 11 12 12 12 12 12 12 12 12 13 13 13 13 13 13 14 14 14 15 15
3 3 4 5 4 7 5 3 4 3 1 1 1 2 2 0 1 1 2 1 3 4 4 5 7 8 9 9 10 11 11 11 11 11 12 12 12 12 12 12 12 12 12 13 13 14 14 14 15
3 4 5 3 5 6 3 2 1 2 2 2 2 2 1 3 2 2 1 2 4 3 3 4 7 7 8 9 10 10 10 11 11 11 11 11 11 11 12 11 11 12 12 12 13 13 13 14 14
4 4 3 1 5 4 2 2 1 1 0 1 2 1 0 3 5 4 3 3 4 3 3 4 6 7 7 8 8 9 10 10 10 10 11 11 11 11 11 11 11 11 12 12 13 13 13 13 14
4 4 3 5 6 3 2 2 0 1 0 1 2 1 0 3 6 5 3 3 3 3 2 3 5 5 5 6 7 8 9 9 9 10 10 10 10 11 11 11 11 11 11 12 12 13 13 13 14
4 3 4 5 4 3 2 1 1 1 0 1 0 2 1 3 5 3 3 3 4 3 3 3 3 3 4 4 5 6 7 8 8 8 9 9 9 10 10 10 10 11 11 12 12 12 13 13 13
3 4 2 3 3 4 1 1 0 1 1 1 2 3 1 3 3 3 4 4 4 4 3 2 2 2 2 3 4 5 6 7 7 8 8 8 8 8 8 8 9 10 11 11 12 12 12 13 13
2 3 4 5 4 3 0 1 2 1 2 2 2 1 1 1 2 4 4 3 3 3 2 2 2 2 2 2 3 4 4 5 6 6 7 7 4 4 5 6 8 9 10 11 12 12 12 12 11
3 3 7 2 2 1 0 1 1 2 2 2 3 4 2 3 3 3 3 1 1 1 1 1 1 2 2 2 2 2 2 3 3 3 4 3 3 3 4 6 7 7 8 9 11 12 11 8 5
2 3 2 2 2 1 1 1 1 2 2 3 2 1 1 2 2 2 2 2 2 1 0 1 1 1 1 1 1 1 1 2 3 4 4 3 3 3 3 3 4 4 5 5 6 6 4 4 4
1 2 2 3 3 2 1 1 1 3 5 2 2 3 3 2 2 3 2 2 1 1 1 0 0 1 1 1 1 1 1 2 2 3 4 3 2 3 3 2 3 3 2 3 4 4 5 5 5
1 3 3 3 3 3 2 2 2 4 4 2 0 2 4 3 3 2 2 1 1 1 2 1 1 0 1 1 1 1 1 1 2 3 3 4 3 3 3 3 2 3 3 3 4 4 5 5 5
1 1 3 4 4 3 2 4 2 4 1 0 1 3 4 4 4 2 1 1 2 2 2 2 1 1 1 1 1 1 1 1 2 3 4 4 3 3 3 3 3 3 3 3 3 5 5 4 4
1 2 4 3 3 2 1 5 5 4 1 1 2 3 3 4 3 3 3 3 3 3 2 2 2 1 2 1 1 1 1 2 2 3 4 4 4 4 4 3 3 3 3 4 3 4 4 4 4
1 1 3 4 2 2 1 7 5 2 2 2 3 3 3 4 4 4 3 3 2 2 2 2 2 2 2 2 2 1 1 1 1 2 3 4 4 4 4 3 3 3 3 4 4 4 4 4 4
2 1 3 5 1 1 2 8 6 2 2 3 3 3 4 4 4 3 2 2 2 2 3 2 2 2 2 2 2 2 2 1 1 1 3 4 5 5 4 3 3 4 4 3 4 3 4 4 4
2 2 3 5 3 1 4 8 8 4 3 4 3 3 4 4 5 4 3 2 2 2 2 2 2 2 2 2 2 1 1 1 1 1 2 3 4 5 4 4 4 5 4 4 4 4 3 4 4
2 2 5 6 4 3 6 10 10 6 2 2 2 2 3 5 4 3 2 1 1 2 2 2 2 2 1 2 2 2 2 2 1 1 2 3 3 4 4 4 4 4 5 5 5 4 5 4 3
2 3 4 5 3 3 6 10 8 4 2 2 2 2 3 4 4 3 2 1 1 2 3 3 3 3 2 2 2 3 2 2 2 1 1 2 3 3 4 5 4 4 5 6 6 5 3 3 3
3 4 4 5 5 2 3 7 4 2 2 1 1 2 3 3 3 3 2 2 2 2 3 3 3 3 3 2 1 1 1 1 1 1 1 1 2 3 3 4 4 4 5 6 6 6 5 4 2
4 3 4 5 2 3 0 5 6 3 3 3 3 3 4 4 3 3 2 2 3 3 2 2 3 3 3 3 3 3 3 3 2 2 2 2 3 3 2 3 4 4 4 6 6 5 4 6 5
4 4 3 3 2 3 1 3 8 2 3 4 3 3 4 4 3 3 3 3 3 3 2 2 2 2 2 3 4 4 3 2 2 2 2 2 3 3 2 3 3 4 4 5 6 6 5 4 5
2 2 1 1 1 3 4 4 7 2 4 4 4 4 4 5 4 4 3 3 3 3 2 2 2 3 2 3 4 4 4 4 4 3 3 2 2 2 2 3 3 3 4 5 5 6 7 5 4
4 4 4 4 2 6 2 3 8 4 2 3 4 5 5 4 5 5 5 4 4 3 3 2 2 3 3 3 3 4 5 5 6 4 4 3 2 2 3 3 3 2 3 4 5 5 5 5 6
1 3 4 3 4 5 2 5 6 3 2 3 3 4 5 5 5 6 6 4 3 3 3 3 3 3 3 3 3 3 4 4 4 4 4 4 4 3 4 4 3 3 3 3 5 4 4 4 6
1 1 2 3 1 3 5 6 7 3 4 5 6 6 6 6 6 6 7 6 4 4 4 3 3 3 3 3 3 3 4 4 4 4 4 3 3 3 4 4 4 3 3 3 4 4 4 4 4
1 3 2 2 1 4 6 5 5 5 6 6 6 7 8 7 7 7 6 6 5 4 4 3 3 3 3 3 3 3 4 4 4 4 4 4 3 4 4 4 4 3 3 3 3 3 3 4 4
1 1 1 1 2 3 4 7 4 4 3 4 6 7 7 7 6 6 6 6 5 4 4 3 3 2 2 3 2 2 3 3 3 4 4 4 4 4 4 4 4 4 4 3 3 3 3 5 5
1 2 3 2 3 3 3 9 3 2 3 4 6 7 7 6 6 6 6 5 5 5 4 4 4 3 3 3 2 2 3 3 3 3 4 4 4 4 4 4 4 4 4 4 4 5 4 6 6
Wind_Direction
338 345 43 55 58 57 228 240 234 269 256 255 206 147 149 151 159 183 352 78 90 134 148 145 133 130 131 132 128 125 123 120 119 119 117 118 119 121 120 118 115 112 112 110 108 107 105 102 101
331 352 50 63 104 194 246 233 230 230 223 337 25 78 96 119 35 44 19 5 100 133 134 137 130 128 126 132 132 129 127 123 122 120 120 117 118 120 118 117 116 113 112 110 109 107 106 105 103
345 34 80 87 148 196 218 227 228 269 281 39 37 50 108 56 29 17 328 76 98 126 128 132 127 130 126 128 132 131 129 128 125 123 121 120 117 117 119 116 114 113 112 111 110 109 108 108 107
51 46 57 94 212 220 215 257 230 306 349 26 83 59 50 52 21 336 31 102 104 110 120 133 124 126 127 126 131 131 133 132 129 125 124 122 121 117 116 117 114 112 112 113 113 112 111 111 109
52 82 86 223 233 235 241 285 214 133 279 11 77 116 29 30 24 36 80 101 107 107 106 132 127 124 123 128 130 134 131 133 133 131 128 127 123 121 116 115 117 115 114 116 116 114 115 114 111
56 78 136 223 233 244 271 285 111 60 14 23 72 104 188 31 27 29 49 80 88 96 94 112 128 122 121 122 130 134 135 132 130 132 130 128 125 121 120 117 119 118 118 117 119 118 116 116 113
109 118 186 214 236 241 263 295 146 163 85 277 157 129 309 7 8 24 43 72 70 77 75 78 96 113 116 115 116 123 129 127 126 124 124 122 121 122 125 122 120 121 119 118 118 118 118 116 113
119 116 172 215 221 240 266 324 309 122 222 332 85 121 260 311 356 39 58 72 72 63 59 53 62 72 93 118 108 100 114 120 119 116 110 112 116 119 119 121 119 117 120 119 118 116 117 115 112
77 102 207 213 210 242 354 48 337 31 86 30 30 56 291 99 79 65 59 51 57 61 48 43 47 52 61 91 106 100 106 115 117 114 107 104 109 114 115 114 115 115 119 122 120 116 114 111 108
84 180 219 213 205 218 243 154 314 39 26 355 356 6 46 108 114 103 89 84 71 43 44 61 51 50 60 82 91 111 109 119 118 121 120 114 111 108 108 109 110 108 114 119 118 112 108 103 100
111 202 234 282 298 280 249 187 112 134 246 233 239 261 108 117 131 141 159 174 190 198 276 39 74 69 92 97 98 110 121 120 120 125 120 116 109 110 105 109 109 104 105 111 112 106 99 102 105
128 278 264 287 327 310 278 246 204 198 230 251 209 175 164 167 198 192 187 211 212 237 215 307 353 89 109 114 136 129 138 144 138 140 130 128 123 121 123 117 116 114 110 113 111 108 104 101 105
233 268 284 277 302 303 304 265 230 250 262 291 200 168 179 190 215 222 195 202 211 222 226 211 306 179 151 147 157 140 150 165 155 150 145 138 136 138 135 130 125 121 120 122 123 118 115 111 107
226 274 303 301 286 287 273 279 250 256 255 87 173 199 200 201 211 220 220 211 221 227 235 215 215 223 183 173 185 176 178 166 165 156 154 149 145 145 144 142 138 133 133 126 129 130 123 118 114
240 316 321 311 280 266 294 291 238 240 183 202 227 232 222 214 215 215 221 223 214 215 222 230 206 215 205 189 193 174 181 167 172 172 162 158 151 152 148 149 148 144 137 128 119 120 114 115 113
30 26 308 300 285 288 161 261 255 217 167 231 250 249 240 238 227 228 221 233 233 217 212 226 229 217 214 204 188 167 167 174 183 183 171 166 162 158 151 153 159 150 141 138 133 135 126 121 118
27 299 270 297 283 280 201 256 276 257 201 238 245 248 245 251 255 253 240 229 224 230 215 209 215 222 214 207 187 168 162 167 182 183 177 174 171 167 160 160 160 151 142 145 146 141 140 135 128
246 247 265 273 296 264 246 260 282 276 230 237 245 250 253 251 258 264 263 250 227 229 223 213 213 232 220 192 178 161 149 155 163 191 186 173 172 169 163 161 164 158 150 153 152 145 135 136 133
221 232 264 270 280 259 249 267 278 283 258 248 260 271 274 267 274 280 279 258 239 243 235 214 211 228 217 191 189 185 188 188 190 201 188 171 173 168 167 167 167 166 163 164 157 145 140 131 128
230 269 278 288 280 255 267 275 278 267 238 223 230 261 281 297 308 306 308 290 255 245 244 224 213 216 221 219 226 206 186 186 194 198 185 172 164 171 172 169 175 173 164 159 161 151 153 149 149
252 226 255 282 316 302 292 289 274 258 250 301 294 294 312 308 305 305 308 293 279 268 252 243 233 231 231 214 202 189 135 139 167 187 187 184 168 173 178 177 175 175 172 171 171 168 161 164 162
260 245 265 278 306 292 91 285 279 264 282 303 325 333 320 320 316 307 308 307 294 278 266 249 238 236 235 203 187 183 183 186 206 205 196 186 171 176 176 179 186 177 181 177 177 176 169 163 169
253 291 269 258 235 287 262 227 280 309 277 293 305 306 314 314 310 300 289 283 292 291 277 258 242 246 228 206 195 196 197 188 177 184 180 192 177 168 173 185 192 183 184 186 177 174 172 174 173
282 340 346 59 92 259 229 197 275 261 259 294 303 309 319 322 319 310 300 307 311 319 315 285 258 270 243 206 196 203 198 186 174 181 187 201 187 178 180 188 191 192 189 190 185 182 179 182 178
36 62 16 352 331 255 208 213 254 264 262 273 295 310 325 334 336 328 322 315 312 320 311 286 269 270 255 223 210 211 202 193 189 190 192 195 194 200 197 194 192 195 200 194 186 179 184 186 185
350 126 153 228 250 291 288 236 255 282 311 323 327 331 338 339 336 332 328 317 304 303 299 285 266 267 252 233 225 221 204 199 201 194 194 202 202 203 202 199 192 194 195 194 190 184 186 191 188
106 174 175 151 269 277 270 286 298 323 341 347 344 343 334 329 330 330 332 330 319 305 291 275 258 260 255 245 229 228 208 196 202 200 199 205 206 198 198 199 193 192 190 193 186 193 190 191 191
130 154 101 131 219 275 289 277 270 309 322 333 334 328 322 326 331 335 331 325 318 305 301 309 281 260 260 255 237 235 213 201 199 194 200 203 210 199 197 198 196 193 193 193 188 191 192 194 199
42 79 108 144 181 201 274 275 240 254 292 309 315 319 318 320 323 322 319 319 323 331 329 327 313 288 282 269 260 260 223 206 194 200 206 205 210 199 201 201 195 193 191 191 196 198 195 200 193
159 173 151 177 248 207 231 269 279 264 297 308 313 319 317 316 319 320 321 332 342 341 333 327 319 302 285 281 281 263 230 206 203 209 214 207 207 203 202 198 193 196 194 191 197 199 208 201 194